Lapse_Rate
7.0 7.1 7.2 7.3 7.3 7.3 7.3 7.3 7.3 7.4 7.5 7.6 7.6 7.5 7.5 7.5 7.5 7.5 7.5 7.5 7.9 8.1 8.2 8.3 8.5 8.4 8.2 7.8 8.2 8.2 9.1 9.3 8.6 8.0 6.9 6.4 6.1 5.5 5.3 5.2 5.3 5.3 5.4 5.4 5.2
6.6 6.8 6.9 7.0 7.1 7.1 7.1 7.1 7.1 7.2 7.3 7.4 7.4 7.4 7.3 7.4 7.4 7.4 7.4 7.7 7.8 8.1 8.2 8.5 8.1 8.1 8.0 8.8 8.8 8.5 9.3 8.2 7.8 7.4 6.8 6.5 6.3 5.6 5.5 4.7 5.5 5.6 5.4 5.1 5.0
6.1 6.4 6.6 6.7 6.7 6.9 6.9 6.9 7.0 7.0 7.1 7.1 7.2 7.2 7.2 7.3 7.4 7.4 7.4 7.7 7.8 8.1 8.2 8.4 8.4 8.2 9.5 9.4 9.1 9.3 9.2 8.0 7.5 7.2 6.9 6.3 6.0 5.9 5.9 5.4 5.0 5.5 5.5 5.4 4.7
6.2 6.1 6.1 6.4 6.4 6.5 6.7 6.8 6.9 7.0 7.0 7.0 7.0 7.1 7.0 7.1 7.6 7.5 7.5 7.6 7.8 8.1 8.3 8.3 8.2 9.1 9.6 9.5 9.2 9.3 8.8 7.9 7.4 7.0 6.9 6.4 6.2 5.9 5.9 5.5 4.6 5.2 5.2 5.3 4.9
6.2 6.2 6.1 6.0 6.2 6.3 6.3 6.5 6.7 6.8 7.0 7.0 6.9 7.0 7.0 7.0 7.0 7.2 7.4 7.6 7.6 7.9 8.2 8.2 8.1 9.2 9.6 9.5 9.3 9.4 8.5 8.0 7.4 7.0 6.7 6.6 6.3 5.7 5.2 5.6 5.4 5.4 5.3 5.4 5.4
6.1 6.1 6.1 6.1 6.0 6.1 6.1 6.2 6.4 6.6 6.7 6.8 6.9 7.0 6.9 7.0 6.5 7.3 7.3 7.7 7.7 7.9 8.0 8.1 8.1 8.6 9.6 9.5 9.0 9.4 8.5 8.0 7.5 7.0 6.6 6.6 6.3 6.0 5.6 5.9 5.8 5.5 5.3 5.3 5.3
6.1 6.0 6.0 6.1 6.1 6.0 6.1 6.0 6.1 6.3 6.4 6.5 6.7 6.7 6.8 7.1 7.0 7.4 7.4 7.5 7.8 7.9 8.2 8.0 8.1 8.6 9.3 9.4 9.4 9.1 8.4 7.9 7.6 7.4 7.0 6.8 7.0 6.1 6.3 6.2 6.0 5.9 5.6 5.4 5.4
6.0 6.0 6.0 6.0 6.1 6.0 6.1 6.1 5.9 6.0 6.2 6.3 6.3 6.3 6.8 6.4 7.1 7.4 7.5 7.5 7.8 8.0 8.1 7.9 8.2 8.4 9.1 9.3 9.4 9.4 8.9 9.2 7.9 7.9 7.6 7.3 7.6 6.4 6.5 6.5 6.4 6.2 6.0 5.8 5.3
5.8 5.9 5.9 6.0 6.1 6.0 6.0 6.1 6.0 5.9 6.0 6.1 6.1 6.0 6.2 6.8 7.1 7.4 7.6 7.6 7.6 8.0 8.3 8.4 8.3 8.7 9.0 9.2 9.4 9.5 8.1 9.0 8.6 8.1 8.1 8.4 7.7 6.7 6.0 5.7 6.3 6.3 6.2 6.0 5.5
5.8 5.7 5.9 5.9 6.1 6.1 6.0 6.0 6.0 6.0 5.9 5.8 5.9 5.9 6.6 7.1 7.0 7.3 7.6 7.5 7.4 7.8 8.2 8.4 8.3 8.8 9.5 9.5 9.8 8.7 8.7 9.5 9.4 8.9 8.3 9.3 7.9 6.7 6.3 6.1 5.8 5.6 5.9 5.9 5.4
5.4 5.6 5.6 5.7 6.0 6.1 6.0 6.0 5.8 5.8 5.8 6.1 6.2 6.3 6.3 6.2 6.5 7.3 7.4 7.5 7.4 7.8 8.1 8.5 8.8 9.5 9.6 9.5 8.9 9.7 9.4 9.6 9.5 9.1 9.3 9.4 8.7 7.1 6.7 6.6 6.4 6.2 5.8 5.6 5.3
4.9 5.3 5.4 5.5 5.7 5.9 5.9 5.7 5.9 5.8 5.8 6.1 6.0 5.8 6.0 5.9 6.3 6.6 6.8 7.0 7.4 7.8 8.3 8.9 9.1 9.6 9.7 9.5 9.2 9.6 9.6 9.6 9.5 9.4 9.0 9.4 9.5 8.2 7.1 7.0 6.9 6.5 6.3 6.1 5.8
4.6 4.9 5.2 5.2 5.4 5.5 5.7 5.7 5.9 5.6 5.5 6.1 5.9 5.9 5.9 6.1 6.3 6.7 6.7 7.1 7.4 8.0 8.4 8.9 9.1 9.6 9.6 9.6 9.6 9.6 9.6 9.7 9.7 9.5 9.1 9.3 9.5 8.8 8.1 7.4 7.3 7.0 6.7 6.5 6.3
4.1 4.4 4.8 4.7 4.9 5.4 4.9 5.9 5.7 5.7 5.0 6.4 6.2 6.1 5.8 5.9 6.1 6.7 6.7 7.3 7.7 8.0 8.5 8.9 9.6 9.6 9.6 9.6 9.6 9.6 9.7 9.7 9.7 9.6 9.9 9.4 9.6 8.9 8.5 8.0 7.6 7.4 7.1 6.8 6.6
3.1 3.9 4.2 4.4 4.4 4.7 5.0 5.5 5.7 5.7 6.9 7.8 6.8 6.4 6.6 6.1 6.9 6.4 6.8 7.2 7.7 8.0 8.8 9.0 9.6 9.6 9.6 9.6 9.6 9.9 9.7 9.6 9.7 9.6 9.6 9.6 9.6 9.6 8.7 8.4 8.1 7.8 7.4 7.2 6.7
2.6 2.8 3.8 3.7 4.3 4.5 5.0 5.1 5.1 5.5 6.7 7.3 6.3 6.3 6.6 6.3 6.7 7.1 7.0 7.1 7.7 8.2 8.5 9.3 9.2 9.6 9.5 9.6 9.6 9.7 9.6 9.6 9.6 9.6 9.8 9.6 9.8 9.5 9.3 8.7 8.4 8.2 7.9 7.3 7.1
2.2 2.3 2.7 3.7 3.9 4.0 4.8 4.8 4.9 5.9 7.1 7.5 6.5 6.5 6.9 6.7 6.9 7.0 6.8 6.9 7.4 7.9 8.1 8.7 9.6 9.6 9.1 9.6 9.6 9.6 9.7 9.7 9.9 9.9 9.9 9.6 9.7 9.8 9.6 8.8 8.9 8.3 8.3 8.0 7.5
1.8 1.9 2.6 3.3 3.5 4.2 4.3 4.4 5.2 6.1 7.1 7.8 7.2 7.0 7.0 7.2 7.2 7.2 7.0 7.1 7.5 7.9 8.2 8.5 9.1 8.7 8.8 9.4 9.6 9.4 9.6 9.7 9.5 9.9 9.8 9.4 9.7 9.7 9.7 9.6 9.1 9.1 8.7 8.5 8.0
2.1 2.0 2.6 3.1 3.2 3.8 4.1 3.5 4.2 6.3 6.9 8.1 7.8 7.5 7.2 7.5 7.6 7.4 7.2 7.2 7.3 7.6 8.6 8.5 8.3 8.6 8.4 8.5 9.5 9.5 9.4 9.6 9.7 9.7 9.9 9.6 9.6 9.7 9.7 9.0 8.9 9.1 9.3 8.8 8.7
3.8 2.4 2.8 3.2 3.6 3.7 2.9 3.0 4.7 6.2 8.2 8.1 8.3 8.0 7.9 7.8 7.7 7.5 7.2 7.4 7.5 7.8 8.4 9.5 9.4 9.4 8.4 8.5 8.8 9.6 9.4 9.6 9.5 9.7 9.6 10.0 9.6 9.7 9.6 9.6 9.7 9.0 9.2 9.1 8.9
5.5 3.4 3.0 2.6 3.7 3.1 2.1 2.9 4.2 6.3 7.5 7.4 8.4 9.3 8.7 8.3 8.1 8.0 7.6 7.8 7.8 7.9 8.3 9.3 9.5 9.6 9.4 8.3 8.7 8.8 9.6 9.6 9.6 9.6 9.9 9.8 9.7 9.7 9.7 9.6 9.6 9.1 9.1 9.1 9.0
5.8 5.6 4.0 3.8 3.2 2.9 2.4 3.2 4.7 6.2 6.9 6.9 6.9 8.6 9.4 9.4 9.3 8.3 7.9 7.9 7.9 8.1 8.1 8.6 9.5 9.6 9.3 8.9 8.7 9.5 9.3 9.6 9.6 9.7 9.6 9.6 9.8 9.6 9.7 9.7 8.9 8.9 8.9 9.0 8.9
6.9 6.8 6.3 5.2 4.1 3.9 4.2 4.1 5.1 6.3 6.5 6.4 6.7 7.3 9.1 9.6 9.5 8.6 9.2 8.6 8.6 8.2 8.3 8.4 8.8 9.4 9.7 9.5 8.6 9.2 9.2 9.6 9.6 9.6 9.7 9.7 9.7 9.6 9.6 9.3 9.0 9.2 8.6 8.8 8.7
7.3 7.7 7.4 6.8 5.7 5.6 5.8 5.7 5.6 5.9 6.4 6.5 6.9 7.9 8.2 8.7 9.2 9.3 8.7 9.2 9.1 8.1 8.6 8.3 8.8 9.2 9.6 9.1 9.0 8.8 9.5 9.5 9.6 9.6 9.7 9.6 9.6 9.7 9.7 9.6 9.2 9.0 8.7 8.6 8.9
7.2 7.7 7.0 7.5 7.7 7.0 6.5 6.7 6.5 6.4 5.7 6.3 6.9 7.5 8.0 8.5 8.4 8.8 9.2 9.5 9.5 8.1 8.4 8.2 8.4 8.6 9.2 9.7 9.6 9.5 9.5 9.5 9.6 9.6 9.7 9.6 9.6 9.7 9.7 9.7 9.6 9.1 8.6 8.5 9.2
7.1 7.3 7.5 7.7 7.7 7.0 6.3 6.5 6.5 7.0 6.5 6.6 6.4 6.9 7.3 8.4 8.6 9.0 8.9 9.5 9.6 8.7 8.0 7.9 8.0 8.5 8.8 9.5 9.7 9.6 9.6 8.8 9.6 9.6 9.6 9.6 9.6 9.7 9.7 9.7 9.3 9.6 8.9 9.0 9.2
6.8 7.0 6.9 7.6 8.2 8.1 8.1 7.2 6.5 7.6 7.4 7.6 7.2 7.3 7.8 8.5 9.2 9.1 8.9 9.3 9.6 8.5 7.6 7.8 8.1 8.4 8.5 9.3 9.6 9.6 9.6 9.6 9.3 9.6 9.6 9.6 9.7 9.7 9.7 9.7 9.5 9.3 8.6 8.5 8.7
Wind_Speed
24 24 23 23 23 23 23 23 22 21 21 20 19 17 18 19 21 7 10 4 3 19 9 7 10 10 11 15 8 11 3 9 14 13 13 9 11 9 19 12 8 5 18 16 20
25 25 26 25 25 25 24 23 23 22 22 21 20 18 18 18 12 15 2 6 9 16 11 8 8 5 12 5 4 10 12 10 11 12 9 7 12 9 12 12 14 17 20 18 20
26 26 26 27 28 27 27 26 25 22 22 21 21 19 17 17 12 7 6 3 10 16 14 11 10 9 15 6 4 16 15 12 12 11 11 12 10 7 9 15 12 17 21 18 13
25 27 28 28 29 29 29 28 27 25 22 22 21 20 19 8 7 7 4 2 9 13 13 13 11 16 3 9 1 14 14 12 12 9 9 13 10 8 16 16 18 20 20 18 17
25 26 28 28 29 29 30 30 29 27 24 21 20 17 10 11 18 9 4 6 10 12 14 12 12 10 5 8 8 14 12 13 12 11 10 9 13 14 16 17 17 20 17 16 15
25 25 26 27 29 29 29 30 30 28 25 19 17 14 8 16 3 1 4 4 12 14 15 14 9 7 5 2 3 13 12 14 14 13 13 14 12 12 14 17 17 17 16 15 14
25 26 26 27 29 30 31 31 29 28 24 16 10 6 13 16 1 5 9 11 11 13 15 11 8 11 2 5 11 12 13 13 13 10 7 16 13 14 14 15 16 13 11 12 12
26 26 27 28 29 30 32 32 30 25 19 12 7 9 11 8 15 12 12 12 9 11 15 6 9 12 12 10 13 18 21 15 13 9 6 10 12 13 15 15 14 15 14 14 14
24 27 28 29 31 32 34 35 29 17 11 8 7 10 16 5 13 16 16 16 13 12 11 5 11 16 6 15 15 1 4 15 12 3 5 9 13 14 15 14 14 14 15 14 16
24 26 30 31 32 34 38 35 8 8 8 9 11 8 18 15 11 17 19 17 14 13 12 12 9 13 13 18 10 25 24 12 15 11 6 4 15 15 14 13 13 14 13 13 14
23 26 29 33 34 36 21 6 6 8 16 15 13 16 3 9 4 13 19 19 16 17 18 18 14 16 20 8 9 11 3 12 10 8 6 2 17 14 14 12 13 13 13 14 14
23 25 28 33 36 37 14 8 8 7 10 21 24 19 17 5 13 18 20 21 21 21 22 16 20 20 19 18 14 4 6 8 8 8 8 10 7 17 16 13 14 13 14 14 14
22 24 27 34 39 17 9 8 6 8 8 19 23 24 21 15 16 21 25 26 23 25 25 22 23 21 18 8 12 13 13 12 6 5 10 5 10 14 17 15 13 14 14 14 15
22 22 25 35 13 12 6 4 9 6 7 18 24 20 25 21 22 19 25 27 18 27 26 23 22 21 10 15 17 16 7 4 4 9 4 9 2 14 16 15 16 15 15 16 16
21 20 21 19 13 8 9 12 12 6 7 9 23 10 22 27 12 25 25 27 25 23 22 25 24 19 21 21 17 10 9 8 6 8 11 14 8 15 16 16 17 17 18 17 18
20 19 19 15 8 14 16 10 8 8 17 8 13 16 25 29 28 26 24 28 24 22 26 25 23 19 20 19 18 18 6 7 11 11 12 12 12 13 15 16 17 18 19 19 18
19 20 15 19 10 16 13 9 8 14 15 15 21 20 27 21 30 26 29 29 25 23 25 26 28 21 18 22 21 13 11 10 11 11 9 17 10 4 15 12 17 20 19 21 20
21 26 18 18 18 17 9 9 17 18 27 8 22 22 28 27 32 29 29 28 29 29 19 22 25 20 23 25 20 19 20 13 15 12 11 7 7 6 10 16 11 17 21 20 21
26 13 11 11 15 9 9 17 18 20 30 13 19 22 25 26 30 23 28 31 31 29 21 23 29 25 25 21 25 18 21 23 22 17 8 14 12 16 10 11 9 12 18 22 21
9 13 15 19 11 9 12 28 21 28 14 30 18 20 24 28 32 31 30 32 33 31 27 20 21 24 25 20 28 26 20 21 17 15 13 9 16 10 16 15 13 14 16 20 22
9 8 5 4 7 11 18 27 29 25 22 18 25 20 22 27 30 28 29 25 33 33 28 28 19 24 23 23 23 22 20 23 20 15 11 12 12 12 14 12 7 8 17 18 20
11 11 8 6 11 12 18 28 28 33 20 15 13 22 21 23 26 29 31 31 33 28 34 28 11 17 24 22 24 23 22 25 15 18 15 11 3 19 15 8 6 10 14 17 17
8 11 8 6 13 14 21 27 31 30 27 20 13 18 23 19 23 27 25 27 24 33 32 25 17 17 21 23 23 24 25 23 25 18 15 13 10 8 10 5 7 10 15 16 17
6 6 7 8 13 18 19 24 28 29 24 24 18 22 18 19 15 20 28 29 27 23 21 24 21 20 18 21 22 28 27 28 22 17 15 17 15 16 11 9 12 8 14 15 15
4 6 6 6 6 14 16 16 24 28 19 24 22 23 18 17 19 18 23 23 23 16 20 27 28 22 23 21 25 24 28 26 28 25 21 19 16 12 7 8 9 13 13 15 15
5 4 9 12 6 10 5 15 14 22 25 26 20 18 19 18 21 15 18 24 23 24 21 23 21 27 24 27 23 29 30 32 29 28 23 22 16 7 12 9 12 11 12 14 15
7 10 7 7 10 11 13 16 16 16 21 24 19 20 20 13 9 4 12 9 19 21 22 24 20 21 24 24 22 22 26 28 30 27 24 23 19 16 9 11 12 13 12 14 16
Wind_Direction
8 5 2 358 355 352 348 346 345 342 337 333 328 323 316 316 303 223 267 57 123 168 203 206 230 247 240 258 234 273 317 44 30 67 104 141 108 56 106 109 74 55 140 138 137
4 1 357 355 352 348 346 343 342 340 336 331 326 322 316 320 289 266 82 102 143 179 222 229 265 244 254 254 250 219 68 63 49 85 107 84 110 135 134 112 103 100 115 140 145
358 356 354 351 349 345 343 340 338 336 332 327 322 318 315 314 277 258 7 77 161 207 257 284 290 276 269 273 335 36 73 73 72 85 95 108 112 172 131 138 144 138 140 140 144
355 351 349 347 345 342 339 336 333 331 329 323 318 314 315 256 261 84 15 90 181 218 252 271 267 266 298 101 256 86 70 81 96 116 113 90 112 91 53 84 125 136 142 147 154
353 350 345 342 340 338 335 332 328 325 323 317 311 314 298 232 251 133 153 131 186 213 243 259 276 306 32 111 140 100 92 92 90 88 99 114 82 88 93 103 122 129 145 154 162
349 346 343 339 336 333 331 327 323 320 316 310 301 307 246 255 325 192 245 205 222 214 241 248 279 346 284 75 328 108 118 114 107 120 129 116 129 108 106 118 127 148 154 163 163
344 342 339 337 334 330 326 323 318 314 309 301 285 270 264 244 102 241 222 236 215 223 240 240 282 281 312 139 124 136 138 133 139 134 152 149 117 105 130 136 138 142 153 164 182
339 339 337 334 331 327 323 318 314 307 302 286 256 247 265 245 249 221 242 225 226 233 250 309 260 274 274 112 191 190 177 142 133 181 144 250 112 139 150 152 152 159 165 174 185
337 335 335 332 328 324 320 312 305 289 282 261 238 228 259 134 224 230 222 223 203 220 217 284 255 250 178 192 197 10 357 185 130 157 131 230 124 152 172 163 159 167 169 177 179
336 335 332 331 327 323 320 299 285 279 234 227 263 266 245 222 214 217 205 220 202 204 209 223 226 229 216 217 215 135 239 123 130 153 233 129 112 155 177 176 163 165 168 176 174
335 334 331 328 325 320 324 289 218 207 221 230 212 210 101 191 151 209 194 197 206 207 210 202 218 219 209 202 225 232 29 131 115 112 239 54 134 158 172 182 170 169 170 176 179
332 333 331 326 321 315 296 275 45 331 290 237 249 245 255 240 209 210 188 194 199 205 211 195 221 219 228 158 234 252 199 134 93 122 273 152 180 152 172 189 171 180 173 177 172
330 332 332 325 316 297 309 330 329 319 256 258 232 227 224 211 233 194 187 196 197 208 203 213 208 229 222 168 222 216 210 135 96 167 212 250 179 167 171 182 176 177 177 183 176
329 331 333 329 297 337 280 45 316 317 269 253 210 222 215 212 225 231 195 197 195 209 212 219 213 217 197 218 217 218 225 73 228 243 244 183 306 183 170 184 181 180 179 182 183
328 330 330 318 303 293 22 321 314 257 262 219 185 192 199 199 167 209 186 208 214 207 214 212 222 213 198 214 213 251 148 199 239 259 268 186 243 155 173 187 186 187 182 186 181
323 323 328 300 279 270 291 298 270 226 226 173 144 187 188 194 220 176 198 215 219 217 218 224 214 218 216 220 229 236 185 230 248 248 247 247 243 173 173 186 192 188 181 184 182
316 309 300 293 262 342 327 270 213 230 216 218 180 194 197 188 205 176 191 198 205 207 211 216 224 208 222 221 219 232 211 221 222 225 244 201 213 226 152 179 186 187 189 180 184
312 302 278 260 261 270 263 224 229 207 222 219 187 195 204 190 199 187 191 197 207 208 201 202 216 199 217 232 211 214 220 226 209 221 184 203 222 203 146 159 169 186 189 188 183
308 283 273 256 229 227 234 217 217 231 201 204 196 194 200 203 196 185 198 200 200 207 214 203 215 195 218 211 236 196 223 244 249 229 259 177 201 229 152 185 188 197 190 188 190
303 292 268 244 189 218 223 234 229 240 236 225 213 204 199 202 198 191 199 202 202 207 217 195 209 209 198 213 224 232 204 227 245 262 239 180 174 216 184 206 194 188 208 193 191
280 269 129 151 192 221 224 224 235 243 246 241 227 217 221 201 198 203 205 201 206 200 216 234 210 207 186 204 205 210 226 212 237 237 233 243 187 178 171 188 152 214 201 196 195
272 269 114 208 213 227 230 234 238 242 263 242 275 262 213 211 203 219 205 208 196 203 209 223 213 225 195 197 222 205 216 203 224 212 257 275 308 171 156 173 194 156 181 189 197
281 271 213 218 234 231 226 237 241 237 244 235 237 255 255 229 211 210 219 208 202 207 200 204 226 215 192 198 206 219 206 215 220 241 221 243 137 126 138 156 159 166 175 182 190
292 272 217 202 251 275 239 218 228 239 240 243 244 248 242 240 244 210 222 206 197 210 201 199 216 231 211 206 196 214 209 218 221 220 234 213 249 147 161 194 156 213 170 177 185
278 304 184 263 194 252 257 282 220 220 225 247 236 247 225 227 223 223 212 206 197 194 193 199 221 219 245 214 205 204 217 222 223 228 226 231 211 236 205 191 208 171 165 176 185
302 314 317 288 239 292 237 255 264 213 211 224 231 229 241 228 220 204 238 213 195 184 206 201 218 227 227 243 205 210 208 221 227 225 236 245 243 229 196 202 215 149 163 182 188
319 332 308 290 257 226 225 235 251 250 219 232 227 240 234 241 342 19 316 270 200 201 195 202 213 208 222 225 236 242 221 211 226 225 230 236 237 255 206 204 225 221 183 194 194